Regional Weather Roundup
Issued by NWS

Home | Current Version | Previous Version | Text Only | Print | Product List | Glossary On
Versions: 1 2 3 4 5 6 7 8 9 10 11 12 13 14 15 16 17 18 19 20 21 22 23 24 25 26 27 28 29 30 31 32 33 34 35 36 37 38 39 40 41 42 43 44 45 46 47 48 49 50
000
ASUS43 KDMX 230803
RWRIA

WEATHER ROUNDUP FOR IOWA
NATIONAL WEATHER SERVICE DES MOINES IA
300 AM CDT TUE AUG 23 2016

NOTE: "FAIR" INDICATES FEW OR NO CLOUDS BELOW 12,000 FEET WITH NO
SIGNIFICANT WEATHER AND/OR OBSTRUCTIONS TO VISIBILITY.

* - THESE STATIONS ARE NOT NWS STATIONS...THUS NOT UNDER NWS
QUALITY CONTROL.  THEY ALSO DO NOT REPORT WEATHER SUCH
AS PRECIPITATION OR FOG.

IAZ001>003-012>014-020>022-031>034-043>046-230900-
   NORTHWEST IOWA

CITY           SKY/WX    TMP DP  RH WIND       PRES   REMARKS
CARROLL *      PTCLDY    63  61  94 S7        29.99F
CHEROKEE *     CLEAR     64  62  92 S8        29.96S
DENISON *      PTCLDY    66  61  82 S9G20     29.96S
LE MARS *      PTCLDY    68  61  77 S13       29.93S
ORANGE CITY *  MOCLDY    66  61  82 S14G20    29.93S
SHELDON *      CLOUDY    66  63  88 S12       29.92S
SIOUX CITY     PTCLDY    68  61  78 S12       29.92F
SPENCER        CLOUDY    64  59  83 S10       29.96S
STORM LAKE *   CLEAR     63  61  94 S10       29.98S
$$

IAZ055>058-069>071-079>083-090>094-230900-
   SOUTHWEST IOWA

CITY           SKY/WX    TMP DP  RH WIND       PRES   REMARKS
ATLANTIC *     PTCLDY    66  61  82 S9        30.00F
AUDUBON *      PTCLDY    66  61  82 S7        30.02S
CLARINDA *       N/A     66  63  88 MISG      30.04S
COUNCIL BLFS * MOCLDY    66  61  82 S9G17     29.98F
CRESTON *      PTCLDY    64  61  88 S9        30.05F
HARLAN  *      MOCLDY    66  61  82 S8G14     30.02F
LAMONI         CLEAR     63  60  90 S7        30.06F
RED OAK *      MOCLDY    64  61  88 S6        30.00F
SHENANDOAH *   PTCLDY    64 N/A N/A SE6       30.00F
$$

IAZ047>049-059>061-072>074-084-230900-
   CENTRAL IOWA

CITY           SKY/WX    TMP DP  RH WIND       PRES   REMARKS
AMES           CLEAR     61  61 100 SE7       30.04F
ANKENY *         N/A    N/A N/A N/A MISG        N/A
BOONE *        CLEAR     64  61  88 S7        30.02F
CHARITON *       N/A     63  59  88 MISG      30.06F
DES MOINES     PTCLDY    66  60  81 S8        30.03F
GRINNELL*      CLEAR     62  58  88 SE6       30.08F
KNOXVILLE *    CLEAR     63  59  88 S6        30.05F
MARSHALLTOWN   CLEAR     65  61  87 S10       30.05F
NEWTON *       CLEAR     61  61 100 S7        30.06F
PELLA *        CLEAR     62  59  91 SE6       30.08F
PERRY *          N/A     61  61  99 SE6       30.02F
$$

IAZ004>006-015-016-023>025-035-036-230900-
   NORTH CENTRAL IOWA

CITY           SKY/WX    TMP DP  RH WIND       PRES   REMARKS
ALGONA *       PTCLDY    64  61  88 S12G18    30.00S
ESTHERVILLE    PTCLDY    63  61  93 S12       29.97F
FORT DODGE *   CLEAR     66  57  72 S9        30.01F
MASON CITY     PTCLDY    61  58  90 S8        30.04F
FOREST CITY *    N/A     61  59  94 S6        30.01F
WEBSTER CITY * CLEAR     63  61  94 S8        30.00F
IOWA FALLS *     N/A     63  59  89 SE8       30.05F
$$

IAZ007>011-017>019-026>030-037>042-050>054-066-230900-
   NORTHEAST IOWA

CITY           SKY/WX    TMP DP  RH WIND       PRES   REMARKS
CEDAR RAPIDS   CLEAR     62  61  96 S7        30.09F
CHARLES CITY * CLEAR     63  63 100 S7        30.06S
CLINTON *      CLEAR     62  58  86 SE7       30.14S
DECORAH *      CLEAR     64  61  88 S7        30.06F
DUBUQUE        PTCLDY    61  58  90 S9        30.12S
MONTICELLO *   CLEAR     63  59  88 SE3       30.11S
OELWEIN *      CLEAR     63  59  88 S7        30.09S
WATERLOO       CLEAR     63  59  87 S8        30.06S
$$

IAZ064-065-067-068-078-230900-
   EAST CENTRAL IOWA

CITY           SKY/WX    TMP DP  RH WIND       PRES   REMARKS
DAVENPORT      CLEAR     63  57  81 S8        30.13F
IOWA CITY      CLEAR     63  59  87 CALM      30.12S
MT. PLEASANT * CLEAR     63  62  99 SE6       30.11F
MUSCATINE *    CLEAR     61  57  88 CALM      30.12S
QUAD CITIES    CLEAR     63  57  81 S5        30.13S
$$

IAZ062-063-075>077-085>089-095>099-230900-
   SOUTHEAST IOWA

CITY           SKY/WX    TMP DP  RH WIND       PRES   REMARKS
BURLINGTON     CLEAR     63  60  90 S6        30.12S
FAIRFIELD *    CLEAR     64  59  82 S7        30.10S
FORT MADISON * CLEAR     63  59  88 S3        30.13S
KEOKUK *       CLEAR     64  59  82 SE6       30.11S
OSKALOOSA *      N/A     58  57  96 SE6       30.09S
CENTERVILLE *    N/A     59  59 100 CALM      30.10S
OTTUMWA        CLEAR     63  58  83 S7        30.09S
WASHINGTON *   CLEAR     59  59 100 SE6       30.11F
$$

ABBREVIATIONS USED IN REMARKS
   TC - TEMPERATURES IN CELSIUS
  WCI - WIND CHILL INDEX
   HX - HEAT INDEX
  VSB - VISIBILITY
$$





USA.gov is the U.S. government's official web portal to all federal, state and local government web resources and services.